Weather History for Dallas Love, TX

Change the Weather History Date:

Wednesday, April 3, 2013

  Actual Average Record
Temperature  
Mean Temperature 50 °F -  
Max Temperature 55 °F 70 °F 87 °F (2011)
Min Temperature 46 °F 52 °F 39 °F (2009)
Degree Days  
Heating Degree Days 14    
Moisture  
Dew Point 45 °F    
Average Humidity 83    
Maximum Humidity 93    
Minimum Humidity 64    
Precipitation  
Precipitation 1.06 in - - ()
Sea Level Pressure  
Sea Level Pressure 30.07 in    
Wind  
Wind Speed 10 mph (NNE)    
Max Wind Speed 20 mph    
Max Gust Speed 25 mph    
Visibility 6 miles    
Events Rain , Thunderstorm    
Averages and records for this station are not official NWS values.
T = Trace of Precipitation, MM = Missing Value Source: NWS Daily Summary

Daily Weather History Graph

Daily Weather History Graph

Search for Another Location

Airport:

Trip Planner

Search our weather history database for the weather conditions in past years. The results will help you decide how hot, cold, wet, or windy it might be!

Date:

Astronomy

Apr. 03, 2013 Rise Set
Actual Time 7:12 AM CDT 7:49 PM CDT
Civil Twilight 6:47 AM CDT 8:14 PM CDT
Nautical Twilight 6:18 AM CDT 8:43 PM CDT
Astronomical Twilight 5:48 AM CDT 9:13 PM CDT
Moon 2:33 AM CDT (4/3) 1:22 PM CDT (4/3)
Length of Visible Light 13h 26m
Length of Day
12h 36m
Last Quarter, 44% of the Moon is Illuminated
Apr 3
Last Quarter
Apr 10
New
Apr 18
First Quarter
Apr 25
Full
May 2
Last Quarter

Hourly Weather History & Observations

Time (CDT) Temp. Windchill Dew Point Humidity Pressure Visibility Wind Dir Wind Speed Gust Speed Precip Events Conditions
12:53 AM 55.0 °F - 43.0 °F 64% 29.96 in 10.0 mi East 17.3 mph 24.2 mph N/A   Overcast
1:53 AM 55.9 °F - 44.1 °F 64% 30.00 in 10.0 mi North 10.4 mph 16.1 mph N/A   Overcast
2:21 AM 55.4 °F - 46.4 °F 72% 30.03 in 8.0 mi NNW 11.5 mph - 0.02 in Rain Light Rain
2:53 AM 52.0 °F - 48.9 °F 89% 30.02 in 7.0 mi NNW 9.2 mph - 0.05 in Rain Light Rain
3:44 AM 51.8 °F - 48.2 °F 88% 30.05 in 3.0 mi NNW 4.6 mph - 0.11 in Rain Rain
3:53 AM 52.0 °F - 48.9 °F 89% 30.04 in 4.0 mi North 6.9 mph - 0.14 in Rain Rain
4:16 AM 51.8 °F - 48.2 °F 88% 30.06 in 4.0 mi NNE 4.6 mph - 0.06 in Rain Rain
4:53 AM 50.0 °F - 46.9 °F 89% 30.04 in 6.0 mi ENE 8.1 mph - 0.16 in Rain Light Rain
5:20 AM 50.0 °F - 46.4 °F 87% 30.01 in 4.0 mi East 15.0 mph - 0.05 in Rain Rain
5:53 AM 50.0 °F - 46.0 °F 86% 29.98 in 6.0 mi East 19.6 mph 25.3 mph 0.13 in Rain Light Rain
6:53 AM 50.0 °F - 46.0 °F 86% 29.96 in 10.0 mi ENE 12.7 mph 21.9 mph 0.02 in Rain Light Rain
7:26 AM 50.0 °F - 46.4 °F 87% 30.05 in 6.0 mi North 9.2 mph - 0.01 in Rain Light Rain
7:53 AM 48.9 °F - 45.0 °F 86% 30.06 in 9.0 mi NNE 11.5 mph - 0.02 in   Overcast
8:09 AM 48.2 °F - 44.6 °F 87% 30.07 in 10.0 mi NNE 11.5 mph - N/A   Overcast
8:53 AM 48.0 °F - 43.0 °F 83% 30.06 in 10.0 mi NE 10.4 mph - N/A   Overcast
9:53 AM 48.0 °F - 43.0 °F 83% 30.09 in 10.0 mi NE 8.1 mph - N/A   Overcast
10:53 AM 48.9 °F - 44.1 °F 83% 30.10 in 10.0 mi NE 5.8 mph - N/A   Overcast
11:20 AM 48.2 °F - 42.8 °F 82% 30.11 in 10.0 mi NNE 9.2 mph - N/A   Overcast
11:53 AM 48.9 °F - 44.1 °F 83% 30.12 in 10.0 mi ENE 5.8 mph - N/A   Overcast
12:53 PM 48.9 °F - 44.1 °F 83% 30.10 in 5.0 mi NNE 6.9 mph - N/A   Haze
1:00 PM 48.2 °F - 44.6 °F 87% 30.10 in 3.0 mi NE 5.8 mph - 0.00 in   Light Drizzle
1:53 PM 48.9 °F - 43.0 °F 80% 30.09 in 3.0 mi NNE 8.1 mph - 0.00 in   Light Drizzle
2:53 PM 50.0 °F - 43.0 °F 77% 30.08 in 6.0 mi NE 10.4 mph 16.1 mph N/A   Haze
3:45 PM 51.8 °F - 42.8 °F 71% 30.08 in 6.0 mi NE 5.8 mph - N/A   Haze
3:53 PM 51.1 °F - 43.0 °F 74% 30.09 in 6.0 mi NNE 4.6 mph - N/A   Haze
4:53 PM 51.1 °F - 44.1 °F 77% 30.09 in 4.0 mi North 11.5 mph - 0.00 in   Light Drizzle
5:41 PM 50.0 °F - 44.6 °F 82% 30.07 in 4.0 mi ENE 11.5 mph - 0.02 in Rain , Thunderstorm Thunderstorms and Rain
5:47 PM 50.0 °F - 44.6 °F 82% 30.03 in 2.0 mi East 19.6 mph 24.2 mph 0.04 in Rain , Thunderstorm Thunderstorms and Rain
5:53 PM 50.0 °F - 44.1 °F 80% 30.04 in 2.0 mi Variable 4.6 mph 24.2 mph 0.09 in Rain , Thunderstorm Thunderstorms and Rain
5:56 PM 50.0 °F - 44.6 °F 82% 30.06 in 1.8 mi WNW 6.9 mph - 0.01 in Rain , Thunderstorm Heavy Thunderstorms and Rain
6:04 PM 48.2 °F - 44.6 °F 87% 30.07 in 2.0 mi Variable 3.5 mph - 0.04 in Rain , Thunderstorm Thunderstorms and Rain
6:24 PM 48.2 °F - 44.6 °F 87% 30.06 in 3.0 mi NNE 6.9 mph - 0.10 in Rain , Thunderstorm Thunderstorms and Rain
6:33 PM 48.2 °F - 44.6 °F 87% 30.08 in 3.0 mi North 5.8 mph - 0.12 in Rain Rain
6:41 PM 50.0 °F - 46.4 °F 87% 30.09 in 3.0 mi NW 5.8 mph - 0.14 in Rain Rain
6:53 PM 48.9 °F - 45.0 °F 86% 30.09 in 3.0 mi NW 6.9 mph - 0.17 in Rain Rain
7:12 PM 48.2 °F - 46.4 °F 93% 30.08 in 4.0 mi North 8.1 mph - 0.07 in Rain Rain
7:42 PM 48.2 °F - 46.4 °F 93% 30.10 in 5.0 mi NNW 8.1 mph - 0.17 in Rain Rain
7:53 PM 48.9 °F - 45.0 °F 86% 30.10 in 5.0 mi North 9.2 mph - 0.19 in Rain Light Rain
8:29 PM 48.2 °F - 44.6 °F 87% 30.11 in 5.0 mi North 8.1 mph - 0.00 in   Haze
8:51 PM 48.2 °F - 44.6 °F 87% 30.12 in 7.0 mi North 10.4 mph - 0.01 in Rain Light Rain
8:53 PM 48.0 °F - 44.1 °F 86% 30.12 in 7.0 mi North 11.5 mph - 0.01 in Rain Light Rain
9:53 PM 46.9 °F - 42.1 °F 83% 30.14 in 10.0 mi North 11.5 mph - 0.01 in Rain Light Rain
10:53 PM 46.0 °F 41.4 °F 41.0 °F 83% 30.16 in 10.0 mi North 9.2 mph - 0.05 in Rain Light Rain
11:53 PM 46.0 °F 43.9 °F 42.1 °F 86% 30.16 in 7.0 mi NW 4.6 mph - 0.02 in Rain Light Rain